Location: Avenches
(46.8809°N, 7.0410°E)
Time: 11:04:44
(UTC+00:00)

Cosmos 2297 - Pass Details

Date: 30 March 2020
Orbit: 834 x 860 km, 71.0° (Epoch: 24 May)

Event Time Altitude Azimuth Distance (km) Brightness Sun altitude
Rises 18:54:50 0° 332° (NNW) 3,408 7.6 -10.2°
Reaches altitude 10° 18:57:16 10° 333° (NNW) 2,473 6.8 -10.6°
Maximum altitude 19:02:58 89° 242° (WSW) 854 3.7 -11.5°
Drops below altitude 10° 19:08:40 10° 155° (SSE) 2,474 5.7 -12.4°
Enters shadow 19:09:40 - 156° (SSE) 2,854 6.0 -12.6°
